Weather History for Winslow, AZ

Change the Weather History Date:

Saturday, December 8, 2012

  Actual Average Record
Temperature  
Mean Temperature 44 °F 36 °F  
Max Temperature 64 °F 50 °F 72 °F (1958)
Min Temperature 23 °F 21 °F -10 °F (1978)
Degree Days  
Heating Degree Days 21 29  
Month to date heating degree days 140 227  
Since 1 July heating degree days 904 1163  
Cooling Degree Days 0 0  
Month to date cooling degree days 0 0  
Year to date cooling degree days 1442 1208  
Moisture  
Dew Point 20 °F    
Average Humidity 44    
Maximum Humidity 74    
Minimum Humidity 14    
Precipitation  
Precipitation 0.00 in 0.02 in 0.27 in (1960)
Month to date precipitation 0.00 0.14  
Year to date precipitation 5.14 6.59  
Sea Level Pressure  
Sea Level Pressure 29.93 in    
Wind  
Wind Speed 7 mph (SSW)    
Max Wind Speed 20 mph    
Max Gust Speed 24 mph    
Visibility 10 miles    
Events      
T = Trace of Precipitation, MM = Missing Value Source: NWS Daily Summary

Daily Weather History Graph

Daily Weather History Graph

Search for Another Location

Airport:

Trip Planner

Search our weather history database for the weather conditions in past years. The results will help you decide how hot, cold, wet, or windy it might be!

Date:

Astronomy

Dec. 08, 2012 Rise Set
Actual Time 7:18 AM MST 5:11 PM MST
Civil Twilight 6:50 AM MST 5:39 PM MST
Nautical Twilight 6:19 AM MST 6:10 PM MST
Astronomical Twilight 5:48 AM MST 6:41 PM MST
Moon 1:57 AM MST (12/8) 1:34 PM MST (12/8)
Length of Visible Light 10h 48m
Length of Day
9h 52m
Waning Crescent, 27% of the Moon is Illuminated
Dec 8
Waning Crescent
Dec 13
New
Dec 19
First Quarter
Dec 28
Full
Jan 4
Last Quarter

Hourly Weather History & Observations

Time (MST) Temp. Windchill Dew Point Humidity Pressure Visibility Wind Dir Wind Speed Gust Speed Precip Events Conditions
12:56 AM 32.0 °F - 19.9 °F 61% 29.94 in 10.0 mi Calm Calm - N/A   Clear
1:56 AM 32.0 °F 28.7 °F 21.0 °F 64% 29.94 in 10.0 mi NNW 3.5 mph - N/A   Clear
2:56 AM 28.9 °F - 19.0 °F 67% 29.94 in 10.0 mi Calm Calm - N/A   Clear
3:56 AM 28.0 °F 22.8 °F 19.0 °F 69% 29.94 in 10.0 mi SE 4.6 mph - N/A   Clear
4:56 AM 26.1 °F 21.9 °F 18.0 °F 71% 29.96 in 10.0 mi ESE 3.5 mph - N/A   Clear
5:56 AM 25.0 °F 19.3 °F 16.0 °F 69% 29.99 in 10.0 mi East 4.6 mph - N/A   Clear
6:56 AM 24.1 °F 18.2 °F 15.1 °F 69% 30.03 in 10.0 mi SE 4.6 mph - N/A   Clear
7:56 AM 25.0 °F - 17.1 °F 72% 30.05 in 10.0 mi Calm Calm - N/A   Clear
8:56 AM 32.0 °F 25.6 °F 19.0 °F 59% 30.03 in 10.0 mi ESE 6.9 mph - N/A   Clear
9:56 AM 39.9 °F 37.8 °F 21.9 °F 49% 30.01 in 10.0 mi ESE 3.5 mph - N/A   Clear
10:56 AM 46.9 °F - 25.0 °F 42% 29.98 in 10.0 mi Calm Calm - N/A   Clear
11:56 AM 54.0 °F - 26.1 °F 34% 29.92 in 10.0 mi Variable 3.5 mph - N/A   Clear
12:56 PM 59.0 °F - 19.0 °F 21% 29.87 in 10.0 mi Calm Calm - N/A   Clear
1:56 PM 62.1 °F - 19.0 °F 19% 29.84 in 10.0 mi Calm Calm - N/A   Clear
2:56 PM 63.0 °F - 14.0 °F 15% 29.84 in 10.0 mi West 11.5 mph - N/A   Clear
3:56 PM 61.0 °F - 12.9 °F 15% 29.86 in 10.0 mi West 13.8 mph 23.0 mph N/A   Clear
4:56 PM 55.9 °F - 12.9 °F 18% 29.89 in 10.0 mi WSW 11.5 mph - N/A   Clear
5:56 PM 50.0 °F - 14.0 °F 24% 29.91 in 10.0 mi WSW 10.4 mph - N/A   Clear
6:56 PM 46.9 °F - 18.0 °F 32% 29.94 in 10.0 mi SW 9.2 mph - N/A   Clear
7:56 PM 45.0 °F 39.7 °F 21.0 °F 39% 29.95 in 10.0 mi SW 10.4 mph - N/A   Clear
8:56 PM 45.0 °F 38.2 °F 27.0 °F 49% 29.93 in 10.0 mi SW 15.0 mph - N/A   Clear
9:56 PM 46.0 °F 39.0 °F 28.0 °F 50% 29.91 in 10.0 mi SW 17.3 mph - N/A   Clear
10:56 PM 46.0 °F 39.6 °F 27.0 °F 47% 29.89 in 10.0 mi WSW 15.0 mph - N/A   Clear
11:56 PM 42.1 °F 35.7 °F 26.1 °F 53% 29.89 in 10.0 mi SW 11.5 mph - N/A   Clear